Location: Cedar Brake
(32.2526°N, 97.8459°W)
Time: 20:32:50
(UTC+00:00)

Cosmos 1814 Rocket - Pass Details

Date: 22 April 2026
Orbit: 740 x 783 km, 74.1° (Epoch: 21 May)

Event Time Altitude Azimuth Distance (km) Brightness Sun altitude
Exits shadow 11:19:10 - 210° (SSW) 3,000 6.6 -7.9°
Reaches altitude 10° 11:21:10 10° 215° (SW) 2,239 5.9 -7.5°
Maximum altitude 11:26:03 48° 289° (WNW) 963 4.2 -6.5°
Drops below altitude 10° 11:30:59 10° 4° (N) 2,261 6.8 -5.5°
Sets 11:33:26 0° 10° (N) 3,193 7.6 -5.0°
